User: anonymous   Login
Location: Unspecified
(0.0000°N, 0.0000°E)
Time: 00:41:44
(UTC+00:00)
Language:

AAUSAT CUBESAT 2 - Orbit

View from above orbital plane
View from above orbital plane
View from above satellite
View from above satellite

Ground track
Ground track

The orbit data is extracted from the following two-line orbital elements,

1 32788U 08021F   21015.53236667  .00000744  00000-0  72324-4 0  9993
2 32788  97.4973  16.6952 0013066  66.8254 293.4343 14.95344502691006
Epoch (UTC): 15 January 2021 12:46:36
Eccentricity: 0.0013066
inclination: 97.4973°
perigee height: 572 km
apogee height: 590 km
right ascension of ascending node: 16.6952°
argument of perigee: 66.8254°
revolutions per day: 14.95344502
mean anomaly at epoch: 293.4343°
orbit number at epoch: 69100

The dashed part of the orbit path shows where the satellite is in the earth's shadow,  

DLR